This demonstration page uses our WeatherBlox Daily Observations layout. Learn more.

Left ArrowRight Arrow

41.86663, -103.66717

Hourly Observations for June 15, 2021

Temp ( °F °C ) Dew Point ( °F °C ) Humidity (%) Winds ( mph kmh ) Pressure ( in mb ) Visibility ( mi km ) Precip ( " mm )
12:53 am 00:53 Clear 77 25 56 13.3 48 48 ESE 15 24 29.93 1014 10 16 N/A
1:53 am 01:53 Clear 74 23.3 57 13.9 56 56 ESE 10 17 29.92 1013 10 16 N/A
2:53 am 02:53 Clear 73 22.8 57 13.9 57 57 ESE 13 20 29.91 1013 10 16 N/A
3:53 am 03:53 Clear 72 22.2 58 14.4 61 61 E 16 26 29.91 1013 10 16 N/A
4:53 am 04:53 Clear 70 21.1 58 14.4 66 66 E 12 19 29.91 1013 10 16 N/A
5:53 am 05:53 Sunny 70 21.1 58 14.4 66 66 E 13 20 29.95 1014 10 16 N/A
6:53 am 06:53 Sunny 72 22.2 60 15.6 66 66 E 10 17 29.97 1015 10 16 N/A
7:53 am 07:53 Sunny 77 25 61 16.1 58 58 SE 14 22 29.96 1014 10 16 N/A
8:53 am 08:53 Sunny 80 26.7 61 16.1 52 52 ESE 14 22 29.96 1015 10 16 N/A
9:53 am 09:53 Sunny 83 28.3 61 16.1 48 48 SE 18 30 29.97 1015 10 16 N/A
10:53 am 10:53 Sunny 87 30.6 62 16.7 43 43 ESE 21 33 29.96 1015 10 16 N/A
11:53 am 11:53 Sunny 92 33.3 61 16.1 36 36 SE 22 35 29.94 1014 10 16 N/A
12:53 pm 12:53 Sunny 97 36.1 59 15 28 28 SSE 18 30 29.91 1013 10 16 N/A
1:53 pm 13:53 Sunny 99 37.2 60 15.6 28 28 SSE 20 31 29.88 1012 10 16 N/A
2:53 pm 14:53 Sunny 103 39.4 53 11.7 19 19 S 16 26 29.85 1011 10 16 N/A
3:53 pm 15:53 Sunny 103 39.4 52 11.1 18 18 SSE 9 15 29.84 1011 10 16 N/A
4:53 pm 16:53 Sunny 103 39.4 46 7.8 15 15 VRB 5 7 29.83 1010 10 16 N/A
5:53 pm 17:53 Sunny 103 39.4 43 6.1 13 13 SE 7 11 29.81 1010 10 16 N/A
6:53 pm 18:53 Sunny 100 37.8 49 9.4 18 18 SE 10 17 29.81 1009 10 16 N/A
7:53 pm 19:53 Sunny 94 34.4 53 11.7 25 25 SE 8 13 29.81 1010 10 16 N/A
8:53 pm 20:53 Clear 85 29.4 55 12.8 36 36 ESE 8 13 29.84 1010 10 16 N/A
9:53 pm 21:53 Clear 83 28.3 58 14.4 43 43 ESE 13 20 29.86 1011 10 16 N/A
10:53 pm 22:53 Clear 80 26.7 58 14.4 47 47 ESE 12 19 29.85 1011 10 16 N/A
11:53 pm 23:53 Clear 78 25.6 58 14.4 50 50 ESE 10 17 29.85 1011 10 16 N/A

Powered by AerisWeather